Weather in Chernovskoye

Russia / Perm Krai     57°29′53″N   54°32′44″E
temp.,
°C
wind,
m/s
gust,
m/s
humid.,
%
clouds,
%
prec.,
mm/h
press.,
hPa
HPBL,
m
25 february, thu
thu2523:00−26n34950 0.0 103272
02:00−28n33960 0.0 103222
05:00−29nw12960 0.0 103219
08:00−30w11960 0.0 103219
11:00−25ssw12880 0.0 1031122
14:00−20ssw34850 0.0 1030326
17:00−19ssw36900 0.0 1028380
20:00−24s349731 0.0 102730
26 february, fri
fri2623:00−27sse349827 0.0 102752
02:00−27sse369727 0.0 102598
05:00−27se489553 0.0 1025143
08:00−27se499781 0.0 1023199
11:00−24sse589790 0.1 1023279
14:00−20sse5995100 0.0 1021441
17:00−18sse61093100 0.1 1019523
20:00−19sse61295100 0.1 1016456
27 february, sat
sat2723:00−20sse61396100 0.1 1014366
02:00−19se71494100 0.0 1009425
05:00−17se71494100 0.1 1006579
08:00−14se71394100 1.0 1002694
11:00−13ese71194100 1.8 1000683
14:00−11e71094100 1.3 999633
17:00−11e71094100 2.3 1000528
20:00−13ene71294100 0.8 1000443
28 february, sun
sun2823:00−15ene71294100 1.3 1001394
02:00−15ne61194100 0.4 1001377
05:00−15ne61194100 0.7 1002369
08:00−16ne61193100 0.3 1003364
11:00−15ne6109399 0.4 1004407
14:00−13ne6991100 0.1 1006483
17:00−13nne6992100 0.3 1007493
20:00−15ne6109396 0.3 1010389
1 march, mon
mon123:00−18nne599488 0.3 1012244
02:00−18ne599589 0.0 1014301
05:00−21nne489787 0.1 1016190
08:00−23nne489713 0.0 1018135
11:00−20nne469410 0.0 1020248
14:00−15nne45896 0.0 1020335
17:00−13n248822 0.0 1019366
20:00−19wsw119820 0.0 101920